Change the Weather History Date:

Monday, March 17, 2014

  Actual Average Record
Temperature  
Mean Temperature 76 °F -  
Max Temperature 82 °F 78 °F 86 °F (1956)
Min Temperature 69 °F 59 °F 38 °F (1988)
Cooling Degree Days 10    
Growing Degree Days 26 (Base 50)    
Moisture  
Dew Point 68 °F    
Average Humidity 80    
Maximum Humidity 94    
Minimum Humidity 62    
Precipitation  
Precipitation 0.00 in - - ()
Sea Level Pressure  
Sea Level Pressure 29.77 in    
Wind  
Wind Speed 12 mph (SSW)    
Max Wind Speed 18 mph    
Max Gust Speed 26 mph    
Visibility 10 miles    
Events      
Averages and records for this station are not official NWS values.
T = Trace of Precipitation, MM = Missing Value Source: NWS Daily Summary

Daily Weather History Graph

Daily Weather History Graph

Search for Another Location

Airport or City:

Trip Planner

Search our weather history database for the weather conditions in past years. The results will help you decide how hot, cold, wet, or windy it might be!

Date:

Astronomy

Mar. 17, 2014 Rise Set
Actual Time 7:30 AM EDT 7:33 PM EDT
Civil Twilight 7:07 AM EDT 7:56 PM EDT
Nautical Twilight 6:40 AM EDT 8:23 PM EDT
Astronomical Twilight 6:13 AM EDT 8:50 PM EDT
Moon 8:38 PM EDT (3/17) 7:52 AM EDT (3/17)
Length of Visible Light 12h 49m
Length of Day
12h 02m
Full, 99% of the Moon is Illuminated
Mar 17
Full
Mar 23
Last Quarter
Mar 30
New
Apr 7
First Quarter
Apr 15
Full

Hourly Weather History & Observations

Time (EDT) Temp. Heat Index Dew Point Humidity Pressure Visibility Wind Dir Wind Speed Gust Speed Precip Events Conditions
12:15 AM 69.8 °F - 64.4 °F 83% 29.85 in 10.0 mi South 10.4 mph - N/A   Clear
12:35 AM 69.8 °F - 64.4 °F 83% 29.84 in 10.0 mi South 8.1 mph - N/A   Clear
12:55 AM 69.8 °F - 64.4 °F 83% 29.84 in 10.0 mi South 10.4 mph - N/A   Clear
1:15 AM 69.8 °F - 64.4 °F 83% 29.83 in 10.0 mi South 11.5 mph 16.1 mph N/A   Clear
1:35 AM 69.8 °F - 64.4 °F 83% 29.83 in 10.0 mi South 11.5 mph 17.3 mph N/A   Clear
1:55 AM 69.8 °F - 64.4 °F 83% 29.83 in 10.0 mi South 11.5 mph 18.4 mph N/A   Clear
2:15 AM 69.8 °F - 64.4 °F 83% 29.83 in 10.0 mi South 10.4 mph 16.1 mph N/A   Mostly Cloudy
2:35 AM 69.8 °F - 64.4 °F 83% 29.82 in 10.0 mi South 12.7 mph - N/A   Mostly Cloudy
2:55 AM 69.8 °F - 64.4 °F 83% 29.80 in 10.0 mi South 10.4 mph 16.1 mph N/A   Scattered Clouds
3:15 AM 69.8 °F - 64.4 °F 83% 29.79 in 10.0 mi South 13.8 mph 19.6 mph N/A   Mostly Cloudy
3:35 AM 69.8 °F - 66.2 °F 88% 29.79 in 10.0 mi South 11.5 mph 18.4 mph N/A   Overcast
3:55 AM 69.8 °F - 66.2 °F 88% 29.78 in 10.0 mi South 12.7 mph 19.6 mph N/A   Mostly Cloudy
4:15 AM 69.8 °F - 66.2 °F 88% 29.78 in 10.0 mi South 9.2 mph - N/A   Mostly Cloudy
4:35 AM 69.8 °F - 66.2 °F 88% 29.77 in 10.0 mi South 12.7 mph 19.6 mph N/A   Clear
4:55 AM 69.8 °F - 66.2 °F 88% 29.77 in 10.0 mi South 12.7 mph 18.4 mph N/A   Clear
5:15 AM 69.8 °F - 66.2 °F 88% 29.77 in 10.0 mi South 8.1 mph - N/A   Clear
5:35 AM 69.8 °F - 66.2 °F 88% 29.77 in 10.0 mi South 10.4 mph - N/A   Clear
5:55 AM 69.8 °F - 68.0 °F 94% 29.77 in 10.0 mi South 6.9 mph - N/A   Clear
6:15 AM 69.8 °F - 68.0 °F 94% 29.76 in 10.0 mi South 8.1 mph - N/A   Clear
6:35 AM 69.8 °F - 68.0 °F 94% 29.77 in 10.0 mi South 10.4 mph - N/A   Mostly Cloudy
6:55 AM 69.8 °F - 68.0 °F 94% 29.78 in 10.0 mi South 9.2 mph - N/A   Overcast
7:15 AM 69.8 °F - 68.0 °F 94% 29.78 in 10.0 mi South 8.1 mph - N/A   Mostly Cloudy
7:35 AM 69.8 °F - 68.0 °F 94% 29.79 in 10.0 mi South 10.4 mph 17.3 mph N/A   Scattered Clouds
7:55 AM 69.8 °F - 68.0 °F 94% 29.78 in 7.0 mi South 10.4 mph - N/A   Scattered Clouds
8:15 AM 69.8 °F - 68.0 °F 94% 29.79 in 7.0 mi South 15.0 mph 18.4 mph N/A   Scattered Clouds
8:35 AM 69.8 °F - 68.0 °F 94% 29.79 in 7.0 mi South 10.4 mph - N/A   Scattered Clouds
8:55 AM 71.6 °F - 69.8 °F 94% 29.79 in 7.0 mi South 12.7 mph 18.4 mph N/A   Scattered Clouds
9:15 AM 71.6 °F - 69.8 °F 94% 29.80 in 7.0 mi South 15.0 mph 19.6 mph N/A   Scattered Clouds
9:35 AM 73.4 °F - 69.8 °F 88% 29.80 in 10.0 mi SSW 13.8 mph 20.7 mph N/A   Clear
9:55 AM 73.4 °F - 68.0 °F 83% 29.80 in 10.0 mi South 17.3 mph 25.3 mph N/A   Clear
10:15 AM 73.4 °F - 68.0 °F 83% 29.81 in 10.0 mi SSW 15.0 mph 23.0 mph N/A   Clear
10:35 AM 75.2 °F - 69.8 °F 83% 29.81 in 10.0 mi SSW 18.4 mph 24.2 mph N/A   Clear
10:55 AM 75.2 °F - 69.8 °F 83% 29.81 in 10.0 mi South 16.1 mph 21.9 mph N/A   Clear
11:15 AM 77.0 °F - 69.8 °F 78% 29.82 in 10.0 mi SSW 18.4 mph 24.2 mph N/A   Clear
11:35 AM 77.0 °F - 69.8 °F 78% 29.82 in 10.0 mi South 17.3 mph 26.5 mph N/A   Clear
11:55 AM 77.0 °F - 69.8 °F 78% 29.82 in 10.0 mi SSW 16.1 mph 23.0 mph N/A   Clear
12:15 PM 78.8 °F - 69.8 °F 74% 29.81 in 10.0 mi South 15.0 mph 20.7 mph N/A   Clear
12:35 PM 80.6 °F 83.9 °F 69.8 °F 70% 29.80 in 10.0 mi South 18.4 mph - N/A   Clear
12:55 PM 80.6 °F 83.9 °F 69.8 °F 70% 29.80 in 10.0 mi SSW 12.7 mph - N/A   Scattered Clouds
1:15 PM 80.6 °F 83.9 °F 69.8 °F 70% 29.79 in 10.0 mi SSW 11.5 mph 21.9 mph N/A   Mostly Cloudy
1:35 PM 80.6 °F 83.9 °F 69.8 °F 70% 29.78 in 10.0 mi South 13.8 mph 21.9 mph N/A   Mostly Cloudy
1:55 PM 80.6 °F 83.9 °F 69.8 °F 70% 29.77 in 10.0 mi SSW 13.8 mph 17.3 mph N/A   Mostly Cloudy
2:15 PM 80.6 °F 83.9 °F 69.8 °F 70% 29.76 in 10.0 mi SW 13.8 mph 19.6 mph N/A   Scattered Clouds
2:35 PM 80.6 °F 83.2 °F 68.0 °F 65% 29.75 in 10.0 mi SSW 16.1 mph 24.2 mph N/A   Clear
2:55 PM 82.4 °F 85.4 °F 68.0 °F 62% 29.75 in 10.0 mi SSW 13.8 mph - N/A   Clear
3:15 PM 82.4 °F 85.4 °F 68.0 °F 62% 29.74 in 10.0 mi SW 17.3 mph 23.0 mph N/A   Clear
3:35 PM 80.6 °F 83.2 °F 68.0 °F 65% 29.73 in 10.0 mi SSW 16.1 mph 20.7 mph N/A   Clear
3:55 PM 80.6 °F 83.2 °F 68.0 °F 65% 29.73 in 10.0 mi SW 12.7 mph 20.7 mph N/A   Clear
4:15 PM 80.6 °F 83.2 °F 68.0 °F 65% 29.73 in 10.0 mi SW 17.3 mph 23.0 mph N/A   Clear
4:35 PM 80.6 °F 83.2 °F 68.0 °F 65% 29.73 in 10.0 mi SSW 15.0 mph 23.0 mph N/A   Clear
4:55 PM 78.8 °F - 68.0 °F 69% 29.74 in 10.0 mi SW 11.5 mph - N/A   Clear
5:15 PM 78.8 °F - 68.0 °F 69% 29.74 in 10.0 mi SW 10.4 mph - N/A   Clear
5:35 PM 78.8 °F - 68.0 °F 69% 29.73 in 10.0 mi SSW 8.1 mph 16.1 mph N/A   Clear
5:55 PM 78.8 °F - 68.0 °F 69% 29.73 in 10.0 mi SSW 11.5 mph - N/A   Clear
6:15 PM 78.8 °F - 68.0 °F 69% 29.72 in 10.0 mi SSW 16.1 mph 19.6 mph N/A   Clear
6:35 PM 78.8 °F - 68.0 °F 69% 29.71 in 10.0 mi SSW 11.5 mph 16.1 mph N/A   Clear
6:55 PM 78.8 °F - 68.0 °F 69% 29.72 in 10.0 mi SSW 13.8 mph - N/A   Clear
7:15 PM 77.0 °F - 68.0 °F 74% 29.73 in 10.0 mi SSW 9.2 mph 12.7 mph N/A   Clear
7:35 PM 77.0 °F - 68.0 °F 74% 29.74 in 10.0 mi SW 10.4 mph - N/A   Scattered Clouds
7:55 PM 77.0 °F - 68.0 °F 74% 29.76 in 10.0 mi SW 9.2 mph - N/A   Scattered Clouds
8:15 PM 77.0 °F - 68.0 °F 74% 29.76 in 10.0 mi SSW 8.1 mph - N/A   Mostly Cloudy
8:35 PM 77.0 °F - 68.0 °F 74% 29.75 in 10.0 mi SSW 5.8 mph - N/A   Scattered Clouds
8:55 PM 75.2 °F - 68.0 °F 78% 29.74 in 10.0 mi SSW 5.8 mph - N/A   Clear
9:15 PM 75.2 °F - 68.0 °F 78% 29.73 in 10.0 mi South 4.6 mph - N/A   Clear
9:35 PM 73.4 °F - 68.0 °F 83% 29.75 in 10.0 mi SSW 8.1 mph - N/A   Clear
9:55 PM 73.4 °F - 68.0 °F 83% 29.75 in 10.0 mi SSW 8.1 mph - N/A   Clear
10:15 PM 73.4 °F - 68.0 °F 83% 29.74 in 10.0 mi South 8.1 mph - N/A   Light Drizzle
10:35 PM 73.4 °F - 69.8 °F 88% 29.75 in 10.0 mi South 9.2 mph - N/A   Clear
10:55 PM 73.4 °F - 69.8 °F 88% 29.74 in 10.0 mi South 9.2 mph - N/A   Clear
11:35 PM 73.4 °F - 69.8 °F 88% 29.74 in 10.0 mi South 12.7 mph 17.3 mph N/A   Scattered Clouds
11:55 PM 73.4 °F - 69.8 °F 88% 29.74 in 10.0 mi South 13.8 mph 20.7 mph N/A   Clear